Location: Ackerson Creek
(37.8210°N, 119.8757°W)
Time: 15:48:42
(UTC+00:00)

Cosmos 1939 Rocket - Pass Details

Date: 13 April 2024
Orbit: 515 x 558 km, 97.4° (Epoch: 22 May)

Event Time Altitude Azimuth Distance (km) Brightness Sun altitude
Rises 12:32:06 0° 14° (NNE) 2,639 6.8 -11.1°
Reaches altitude 10° 12:34:12 10° 17° (NNE) 1,748 5.9 -10.7°
Maximum altitude 12:37:57 69° 100° (E) 555 3.0 -10.0°
Drops below altitude 10° 12:41:41 10° 185° (S) 1,742 5.1 -9.3°
Sets 12:43:47 0° 188° (S) 2,630 6.0 -8.9°
